Change the Weather History Date:

Monday, December 3, 2012

  Actual Average Record
Temperature  
Mean Temperature 58 °F 32 °F  
Max Temperature 70 °F 39 °F 71 °F (1970)
Min Temperature 46 °F 25 °F -5 °F (1940)
Degree Days  
Heating Degree Days 7 33  
Month to date heating degree days 39 98  
Since 1 July heating degree days 1289 1354  
Cooling Degree Days 0 0  
Month to date cooling degree days 0 0  
Year to date cooling degree days 1324 843  
Growing Degree Days 10 (Base 50)    
Moisture  
Dew Point 55 °F    
Average Humidity 83    
Maximum Humidity 100    
Minimum Humidity 66    
Precipitation  
Precipitation T in 0.09 in 1.12 in (1873)
Month to date precipitation 0.06 0.28  
Year to date precipitation 24.76 34.92  
Snow  
Snow 0.00 in 0.20 in 4.00 in (1893)
Month to date snowfall 0.0 0.6  
Since 1 July snowfall T 2.0  
Snow Depth 0.00 in    
Sea Level Pressure  
Sea Level Pressure 29.89 in    
Wind  
Wind Speed 13 mph (South)    
Max Wind Speed 30 mph    
Max Gust Speed 39 mph    
Visibility 5 miles    
Events Fog , Rain    
T = Trace of Precipitation, MM = Missing Value Source: NWS Daily Summary

Daily Weather History Graph

Daily Weather History Graph

Search for Another Location

Airport or City:

Trip Planner

Search our weather history database for the weather conditions in past years. The results will help you decide how hot, cold, wet, or windy it might be!

Date:

Astronomy

Dec. 03, 2012 Rise Set
Actual Time 7:02 AM CST 4:20 PM CST
Civil Twilight 6:31 AM CST 4:51 PM CST
Nautical Twilight 5:56 AM CST 5:26 PM CST
Astronomical Twilight 5:22 AM CST 6:00 PM CST
Moon 9:09 PM CST (12/3) 10:23 AM CST (12/3)
Length of Visible Light 10h 20m
Length of Day
9h 17m
Waning Gibbous, 78% of the Moon is Illuminated
Dec 3
Waning Gibbous
Dec 6
Last Quarter
Dec 13
New
Dec 19
First Quarter
Dec 28
Full

Hourly Weather History & Observations

Time (CST) Temp. Windchill Dew Point Humidity Pressure Visibility Wind Dir Wind Speed Gust Speed Precip Events Conditions
12:09 AM 46.4 °F - 46.4 °F 100% 30.03 in 1.2 mi Calm Calm - N/A   Overcast
12:27 AM 46.4 °F 45.2 °F 44.6 °F 93% 30.03 in 0.2 mi South 3.5 mph - N/A Fog Fog
12:40 AM 46.4 °F - 46.4 °F 100% 30.02 in 0.2 mi Calm Calm - N/A Fog Fog
12:51 AM 46.0 °F - 46.0 °F 100% 30.03 in 0.2 mi Calm Calm - N/A Fog Fog
12:57 AM 46.4 °F - 46.4 °F 100% 30.02 in 0.1 mi Calm Calm - N/A Fog Fog
1:51 AM 48.0 °F - 48.0 °F 100% 30.02 in 0.1 mi Calm Calm - N/A Fog Fog
2:51 AM 48.9 °F - 48.9 °F 100% 30.01 in 0.1 mi SE 3.5 mph - N/A Fog Fog
3:51 AM 48.9 °F - 48.9 °F 100% 29.98 in 0.1 mi SE 4.6 mph - N/A Fog Fog
4:17 AM 51.8 °F - 51.8 °F 100% 29.97 in 0.2 mi SSE 5.8 mph - N/A Fog Fog
4:51 AM 52.0 °F - 52.0 °F 100% 29.96 in 0.2 mi SSE 4.6 mph - N/A Fog Fog
5:51 AM 53.1 °F - 53.1 °F 100% 29.96 in 0.2 mi SSE 4.6 mph - N/A Fog Fog
6:38 AM 53.6 °F - 53.6 °F 100% 29.94 in 0.2 mi South 4.6 mph - 0.00 in Fog Light Drizzle
6:51 AM 55.9 °F - 55.9 °F 100% 29.95 in 0.5 mi South 8.1 mph - 0.00 in Fog Light Drizzle
7:40 AM 57.2 °F - 57.2 °F 100% 29.93 in 1.0 mi South 11.5 mph - 0.00 in   Light Drizzle
7:51 AM 57.9 °F - 57.9 °F 100% 29.94 in 1.0 mi South 12.7 mph - 0.00 in   Light Drizzle
8:51 AM 59.0 °F - 59.0 °F 100% 29.93 in 1.0 mi South 13.8 mph - 0.00 in   Light Drizzle
9:51 AM 60.1 °F - 59.0 °F 96% 29.91 in 1.0 mi South 12.7 mph - 0.00 in   Overcast
10:02 AM 60.8 °F - 59.0 °F 94% 29.91 in 2.0 mi South 11.5 mph - N/A   Overcast
10:15 AM 60.8 °F - 60.8 °F 100% 29.90 in 2.0 mi South 13.8 mph - N/A   Overcast
10:51 AM 61.0 °F - 60.1 °F 97% 29.89 in 2.5 mi South 12.7 mph - N/A   Overcast
11:09 AM 60.8 °F - 60.8 °F 100% 29.87 in 3.0 mi South 12.7 mph - N/A   Overcast
11:51 AM 62.1 °F - 61.0 °F 96% 29.84 in 4.0 mi South 12.7 mph - N/A   Overcast
12:18 PM 62.6 °F - 60.8 °F 94% 29.82 in 4.0 mi South 12.7 mph 19.6 mph N/A   Overcast
12:26 PM 62.6 °F - 60.8 °F 94% 29.82 in 5.0 mi South 12.7 mph - N/A   Overcast
12:51 PM 66.0 °F - 61.0 °F 84% 29.81 in 7.0 mi South 10.4 mph - N/A   Overcast
1:51 PM 69.1 °F - 60.1 °F 73% 29.78 in 10.0 mi South 15.0 mph 26.5 mph N/A   Mostly Cloudy
2:44 PM 69.8 °F - 60.8 °F 73% 29.76 in 10.0 mi South 23.0 mph 29.9 mph N/A   Mostly Cloudy
2:51 PM 70.0 °F - 60.1 °F 71% 29.75 in 10.0 mi South 24.2 mph 31.1 mph N/A   Mostly Cloudy
3:51 PM 69.1 °F - 57.9 °F 68% 29.76 in 10.0 mi SSW 17.3 mph 25.3 mph N/A   Mostly Cloudy
4:51 PM 69.1 °F - 57.9 °F 68% 29.80 in 10.0 mi SW 16.1 mph 26.5 mph N/A   Overcast
5:51 PM 68.0 °F - 57.0 °F 68% 29.78 in 10.0 mi SSW 20.7 mph 32.2 mph N/A   Mostly Cloudy
6:51 PM 66.0 °F - 55.9 °F 70% 29.78 in 10.0 mi SSW 23.0 mph 34.5 mph N/A   Scattered Clouds
7:51 PM 64.9 °F - 55.9 °F 73% 29.79 in 10.0 mi SSW 29.9 mph 39.1 mph N/A   Mostly Cloudy
8:51 PM 64.0 °F - 55.9 °F 75% 29.80 in 10.0 mi SSW 21.9 mph 34.5 mph N/A   Overcast
9:51 PM 64.0 °F - 55.9 °F 75% 29.81 in 10.0 mi SSW 17.3 mph 29.9 mph N/A   Scattered Clouds
10:31 PM 64.4 °F - 55.4 °F 73% 29.84 in 10.0 mi SW 18.4 mph 27.6 mph 0.00 in Rain Light Rain
10:51 PM 63.0 °F - 57.0 °F 81% 29.85 in 10.0 mi WSW 12.7 mph - 0.00 in Rain Light Rain
11:30 PM 62.6 °F - 55.4 °F 77% 29.87 in 10.0 mi WSW 10.4 mph - 0.00 in   Overcast
11:51 PM 60.1 °F - 54.0 °F 80% 29.87 in 10.0 mi West 13.8 mph - 0.00 in   Overcast